User: anonymous   Login
Location: Goheenville
(40.9070°N, 79.3720°W)
Time: 11:52:37
(UTC-04:00)
Language:

Cosmos 1633 - Orbit

View from above orbital plane
View from above orbital plane
View from above satellite
View from above satellite

Ground track
Ground track

The orbit data is extracted from the following two-line orbital elements,

1 15592U 85020A   14303.27333262  .00010356  00000-0  47510-3 0  5885
2 15592 082.5427 197.7782 0015947 327.3616 170.2595 15.20191485617792
Epoch (UTC): 30 October 2014 06:33:35
Eccentricity: 0.0015947
inclination: 82.5427°
perigee height: 494 km
apogee height: 516 km
right ascension of ascending node: 197.7782°
argument of perigee: 327.3616°
revolutions per day: 15.20191485
mean anomaly at epoch: 170.2595°
orbit number at epoch: 61779

The dashed part of the orbit path shows where the satellite is in the earth's shadow,  

DLR